User: anonymous   Login
Location: Unspecified
(0.0000°N, 0.0000°E)
Time: 07:52:46
(UTC+00:00)
Language:

Courier 1B - Orbit

View from above orbital plane
View from above orbital plane
View from above satellite
View from above satellite

Ground track
Ground track

The orbit data is extracted from the following two-line orbital elements,

1 00058U 60013A   21292.88678708  .00000112  00000-0  38030-4 0  9993
2 00058  28.3261 131.5955 0165012 161.3664 199.3009 13.46329116  4616
Epoch (UTC): 19 October 2021 21:16:58
Eccentricity: 0.0165012
inclination: 28.3261°
perigee height: 962 km
apogee height: 1209 km
right ascension of ascending node: 131.5955°
argument of perigee: 161.3664°
revolutions per day: 13.46329116
mean anomaly at epoch: 199.3009°
orbit number at epoch: 461

The dashed part of the orbit path shows where the satellite is in the earth's shadow,  

DLR